EDT,Max TemperatureF,Mean TemperatureF,Min TemperatureF,Max Dew PointF,MeanDew PointF,Min DewpointF,Max Humidity, Mean Humidity, Min Humidity, Max Sea Level PressureIn, Mean Sea Level PressureIn, Min Sea Level PressureIn, Max VisibilityMiles, Mean VisibilityMiles, Min VisibilityMiles, Max Wind SpeedMPH, Mean Wind SpeedMPH, Max Gust SpeedMPH,PrecipitationIn, CloudCover, Events, WindDirDegrees
2012-10-1,67,52,38,53,44,38,100,78,38,29.96,29.91,29.85,10,8,0,6,0,,0.00,1,Fog,34
2012-10-2,71,61,51,53,48,40,95,71,33,29.94,29.88,29.83,10,10,10,10,2,16,0.00,5,,50
2012-10-3,66,60,55,62,56,51,100,86,71,30.05,29.98,29.92,10,9,1,9,2,,0.00,8,Rain,193
2012-10-4,77,67,57,61,54,47,96,70,33,30.07,30.02,29.97,10,10,5,21,7,28,0.00,5,Rain,209
2012-10-5,61,54,48,60,45,38,94,74,51,30.07,30.01,29.94,10,10,10,15,9,21,0.00,5,Rain,244
2012-10-6,50,44,39,42,36,32,92,68,51,30.12,30.01,29.92,10,10,10,16,8,25,0.00,7,,265
2012-10-7,50,42,34,40,36,29,100,78,47,30.14,30.10,30.07,10,10,10,7,2,,0.00,6,,242
2012-10-8,56,42,29,36,30,25,99,62,32,30.18,30.13,30.07,10,10,10,13,4,20,0.00,1,,192
2012-10-9,63,52,42,37,33,29,63,47,32,30.08,29.94,29.77,10,10,10,22,10,30,0.00,0,,184
2012-10-10,55,44,34,44,35,25,99,72,44,30.14,29.94,29.76,10,10,4,22,11,31,0.00,6,Rain,259
2012-10-11,64,48,32,44,33,28,95,65,30,30.19,30.09,29.98,10,10,5,23,7,33,0.00,4,Rain,233
2012-10-12,51,41,31,38,32,24,100,73,36,30.46,30.36,30.20,10,10,7,12,4,18,0.00,1,,329
2012-10-13,59,44,31,60,41,31,100,91,71,30.37,30.13,29.84,10,8,3,15,5,20,0.00,5,Rain,162
2012-10-14,70,64,54,65,62,53,100,88,65,29.83,29.62,29.39,10,7,2,22,11,32,0.00,7,Rain,195
2012-10-15,53,50,46,52,44,38,94,83,71,29.94,29.76,29.50,10,10,7,20,15,29,0.00,8,Rain,273
2012-10-16,61,47,33,42,38,34,100,67,40,29.98,29.87,29.71,10,10,10,12,4,17,0.00,2,Rain,176
2012-10-17,75,64,53,58,47,41,93,59,30,29.70,29.61,29.54,10,10,7,20,11,28,0.00,4,Rain,173
2012-10-18,60,54,49,57,46,33,96,70,37,29.64,29.49,29.34,10,10,5,22,11,29,0.00,6,Rain,171
2012-10-19,54,48,43,48,44,40,100,83,62,29.63,29.57,29.53,10,10,5,17,3,22,0.00,8,Rain,163
2012-10-20,54,49,44,48,46,44,100,92,69,29.89,29.70,29.57,10,8,4,14,4,21,0.00,6,Rain,254
2012-10-21,63,50,36,49,42,36,100,81,43,30.08,30.03,29.90,10,8,0,12,4,,0.00,0,Fog,234
2012-10-22,72,56,40,61,52,40,100,80,58,30.07,30.02,29.95,10,10,3,8,2,,0.00,3,Rain,160
2012-10-23,62,60,58,62,61,58,100,100,97,29.99,29.95,29.88,10,3,0,8,4,,0.00,8,Fog-Rain,20
2012-10-24,79,69,59,63,61,59,100,81,54,30.02,29.97,29.93,10,8,2,9,2,,0.00,4,,171
2012-10-25,77,69,61,61,56,53,80,62,45,29.95,29.87,29.79,10,10,10,23,10,37,0.00,1,,178
2012-10-26,69,56,42,58,40,32,96,72,52,30.25,30.14,29.79,10,10,4,24,11,33,0.00,4,Rain,298
2012-10-27,52,42,33,40,34,31,93,73,45,30.25,30.22,30.16,10,10,10,13,6,18,0.00,2,,350
2012-10-28,46,40,34,38,32,25,87,70,50,30.25,30.21,30.16,10,10,10,20,7,28,0.00,5,,359
2012-10-29,45,41,37,30,27,21,72,57,42,30.15,30.05,29.81,10,10,10,21,12,30,0.00,4,,343
2012-10-30,40,38,35,39,35,25,99,92,55,29.80,29.60,29.53,10,6,2,22,15,37,0.00,8,Snow,332
2012-10-31,43,40,36,41,38,36,99,94,84,29.67,29.60,29.56,10,6,2,15,11,24,0.00,8,Snow,302